Погода в Юрьевеце

Погода в Юрьевеце : погода сейчас, прогноз погоды и архив. Всё, что Вы хотите узнать о погоде в Юрьевеце!

Хотите узнать прогноз погоды в Юрьевеце? Тогда Вам сюда: Погода в Юрьевеце

Поиск расширенной информации на нашем сайте:

Другие новости

Новости СМИ2

Главная страница сайта

Новости сайта

02.10.2013

Напоминаем, что на нашем новом сайте вы можете получить высокодетализированные прогнозы погоды по пунктам России, СНГ и мира (включающие важные для авиации метеовеличины, такие как направление и скорость ветра, видимость, явления погоды, количество и форма облачности, нижняя и верхняя граница облачности), а также ознакомиться с разнообразными материалами по авиационной метеорологии и подборкой полезных ссылок на эту тему.

Сайт Метеоцентр.Азия посвящён разработке технологий оптимизации авиаметеорологического обслуживания, включая проектирование и перспективное создание нескольких автоматизированных авиаметеорологических систем:
- система выпуска высокодетальных прогностических карт явлений погоды для нижнего воздушного пространства по России и ближнему зарубежью;
- система верификации прогнозов TAF (выпускаемых синоптиками официальных АМСГ РФ и ближнего зарубежья) и AUTOTAF (выпускаемых сайтом Метеоцентр.Азия) - выявление ошибок, онлайн-сопоставление с фактической погодой METAR, автоматическое внесение коррективов в прогнозы при резком отклонении фактической погоды от прогноза, подсчёт оправдываемости прогнозов по элементам и в целом;
- система обработки, анализа и отображения авиаметеорологической информации для применения провайдерами метеорологической информации.

Рекомендуем: http://krovat-divan.ru/ недорогие экологичные диван кровати.

Погода в Юрьевеце - сегодня

Время (UTC), дата Ветер
(°,м/с) 
Видим.   Явления Облачность Т
(°С)
Тd
(°С)
f(%) Тe
(°С)
Pmin
(гПа)
dP
(гПа)
Po
(мм)
O2
(г/м3)
Тmin Tmax R s Состояние
почвы
09 26.04.17 160 (Ю) 4{10}  10 км    10/0 средняя 
[Ac und]
+11.5 -4.1 33 +11  1017.4  -1.1  751  291           
12 26.04.17 150 (ЮВ) 4-10{12}  10 км    10/0 средняя 
[Ac und]
+12.3 -2.9 35 +12  1014.6  -2.7  749  289           
15 26.04.17 160 (Ю) 5-10{12}  10 км    10/0 
[Sc]
+12.6 -0.3 41 +12  1011.6  -2.9  747  288    +13       
18 26.04.17 160 (Ю) 5-11{12}  10 км    10/10 600 м 
[Sc]
+13 -0.5 39 +12  1009.8  -1.7  746  287           
21 26.04.17 270 (З) 1{11}  10 км    10/10 600 м 
[Sc]
+11.8 +6.9 72 +13  1011.4  1.5  747  287           
00 27.04.17 280 (З) 10 км    10/10 600 м 
[Sc]
+8.5 +5.6 82 +9  1012.4  0.8  747  291           
03 27.04.17 280 (З) 4000 м  слаб. дождь  10/10 300 м 
[Frnb|Ns]
+4.5 +3.3 92 +3  1014.3  1.6  749  296  +4.5      мокрая 
06 27.04.17 180 (Ю) 4000 м  слаб. дождь  10/10 300 м 
[Frnb|Ns]
+4.3 +3 91 +5  1015.6  1.2  749  297  +3.9         
09 27.04.17 180 (Ю) 4000 м  слаб. дождь  10/10 300 м 
[Frnb|Ns]
+5.2 +3.9 91 +6  1016.3  0.8  750  296           
12 27.04.17 260 (З) 4000 м  слаб. дождь  10/10 300 м 
[Frnb|Ns]
+5.8 +4.5 91 +7  1016.3  750  295           
15 27.04.17 тихо ()   4000 м  слаб. дождь  10/10 300 м 
[Frnb|Ns]
+5.8 +4.7 93 +6  1015.7  -0.5  750  295    +5.9     
18 27.04.17 140 (ЮВ) 2000 м  дымка{дождь}  10/10 600 м 
[Sc]
+5 +4.1 94 +6  1015.5  -0.2  749  296           
21 27.04.17 310 (СЗ) 4000 м  дымка{туман}  10/10 300 м 
[St]
+4.7 +3.9 95 +4  1016.7  1.2  750  297           
00 28.04.17 310 (СЗ) 4000 м  слаб. дождь{туман}  10/10 300 м 
[Frnb|Ns]
+2.9 +1.9 93 +2  1018.2  1.4  751  299           
03 28.04.17 300 (СЗ) 4000 м  слаб. дождь  10/10 300 м 
[Frnb|Ns]
+2.8 +2 94 +2  1019.7  1.4  752  300  +2.7      мокрая 
06 28.04.17 280 (З) 4000 м  слаб. дождь  10/10 300 м 
[Frnb|Ns]
+4.6 +2.9 89 +5  1021.2  1.6  754  298           
09 28.04.17 230 (ЮЗ) 10 км  {дождь}  10/10 300 м 
[Sc]
+6.9 +3.3 78 +8  1022.7  1.6  755  296           
12 28.04.17 110 (В) 10 км  {дождь}  8/8 600 м 
[Cu med, cong]
+9 +3.3 67 +9  1023.8  1.2  756  294           
15 28.04.17 180 (Ю) 10 км    9/8 300 м средняя 
[Sc|Ac trans]
+8.2 +2.5 67 +9  1024.1  0.3  756  295    +9.6     
18 28.04.17 170 (Ю) 10 км    10/0 средняя 
[Ac und]
+6 +2.9 80 +7  1025.1  0.8  757  298           
21 28.04.17 140 (ЮВ) 10 км    10/0 средняя 
[Ac und]
+6.4 +2.8 78 +7  1025.5  0.4  757  298           
00 29.04.17 060 (СВ) 10 км    10/4 300 м средняя 
[Sc|Ac As]
+5.5 +3.2 85 +6  1026.1  0.6  757  299           
03 29.04.17 060 (СВ) 4000 м  слаб. дождь  10/10 300 м 
[Sc]
+5.6 +3.2 85 +5  1026.1  757  299  +5.1    0.0    мокрая 
06 29.04.17 060 (СВ) 10 км  {дождь}  10/0 средняя 
[Ac und]
+7.4 +3.5 76 +7  1025  -0.9  757  296           
09 29.04.17 080 (В) 10 км    8/0 средняя, верхняя 
[Ac trans|Ci sp]
+13.2 +3.3 51 +14  1024.1  -0.5  756  290           
Время (UTC), дата Ветер
(°,м/с) 
Видим.   Явления Облачность Т
(°С)
Тd
(°С)
f(%) Тe
(°С)
Pmin
(гПа)
dP
(гПа)
Po
(мм)
O2
(г/м3)
Тmin Tmax R s Состояние
почвы

Для получения пояснительной информации подведите курсор к названию столбца.

ПОГОДА в Юрьевеце - архив

Всё, что Вы хотите узнать о погоде в Юрьевеце - удобно и подробно!

Выберите нужную дату (начиная с 1 января 2015* года) и нажмите кнопку "Найти".
Будут отображены архивные сводки погоды по пункту Юрьевец, начиная с указанной даты.


Отображать данные в формате CSV (для использования в таблицах Excel)


Внимание! Наш архив погоды предназначен исключительно для личного некоммерческого использования в познавательных целях. Если Вам необходимы официальные справки о состоянии погоды (для производственных, юридических, коммерческих и т.п. целей), обращайтесь в органы Росгидромета.

*Примечание: данная дата относится к архиву по метеостанциям СССР (Россия, СНГ, Балтия).
Архив по метеостанциям Зарубежной Европы и Азии (кроме Китая) хранится 10 дней, по другим регионам земного шара (Китай, Африка, Америка, Австралия, Океания) - 1 день.

Юрьевец - район местоположения метеостанции


Название, широта, долгота, высота метеостанции:
Юрьевец 57.3°ш. 43.1°д. 132 м над ур. моря [Российская Федерация]

Дополнительная информация

В oтличие oт бoльшинства пoгoдных сайтoв мы публикуем пoдрoбную метеoинфoрмацию в детальнoм прoфессиoнальнoм фoрмате.

Характеристики температуры и влажнoсти вoздуха измеряются на высoте 2 м в тени вдали oт зданий и деревьев.
Скoрoсть ветра измеряется на высoте 10 м (на урoвне рoста челoвека скoрoсть ветра ниже в 1.5-2 раза). Если метеoстанция нахoдится в гoрoде или в лесу, тo скoрoсть ветра занижена на 2-4 м/с пo сравнению с oткрытым местoм. Скoрoсть ветра над акватoриями крупных рек и oзёр, а также на вершинах хoлмoв на 2-5 м/с выше, чем в oбычных услoвиях.
Атмoсфернoе давление в разных тoчках местнoсти мoжет значительнo oтличаться oт давления на метеoстанции, в зависимoсти oт услoвий рельефа (при пoдъёме на 10 м давление пoнижается примернo на 1 мм рт.ст.).